Content
SEND FEEDBACK

Daily
Averages
Monthly
Summary
Canada

STRATFORD, ONTARIO


Home > North America > Canada > Ontario
Elevation: 1161 feet     Latitude: 43 24N     Longitude: 081 00W

WEATHER
 
SELECT A DAY
Number of Records: 196,526;   Date Range: 1/1/95 - 12/16/14
 
SHARE

PRINT THIS DATA

[ ← Previous Day ]
WEATHER ALMANAC - OCTOBER 18, 2013
[ Next Day → ]
[ °C ]   °F
Weather ElementAverageHighLow
Temperature49.9 °F59 °F (3:00 pm)41 °F (6:00 am)
Dewpoint42.8 °F46.4 °F (12:11 am)39.2 °F (7:00 am)
Humidity77.7 %100 % (3:00 am)43 % (2:00 pm)
Barometer29.86 in29.91 in (10:00 am)29.76 in (12:11 am)
Wind Speed11.3 mph19.6 mph (1:00 pm)
Wind Gust27.6 mph (1:00 pm)
Weather ElementAverage
Visibility13.3 mi
Wind DirectionWSW (240.3 °)

Weather ElementTotal
Precipitation---
Heating Degree Days15 (Base 65)
Averaged from 29 records on October 18, 2013
WEATHER CONDITIONS BREAKOUT
WIND DIRECTION BREAKOUT
WEATHER BY HOUR - OCTOBER 18, 2013
[ °C ]   °F
Local TimeTemperatureDewpointHumidityBarometerVisibilityWind DirectionWind SpeedGust SpeedPrecipitationEventsConditions
12:11 AM48.2 °F46.4 °F93 %29.76 in8.0 miWSW (250°)10.4 mph23.0 mphRainLight Rain Showers
1:00 AM48.2 °F46.4 °F93 %29.76 in10.0 miWSW (250°)13.8 mph21.9 mphRainLight Rain Showers
2:00 AM48.0 °F46.0 °F89 %29.78 in5.0 miWest (260°)17.3 mphOvercast
2:00 AM48.2 °F46.4 °F93 %29.78 in5.0 miWest (260°)17.3 mph23.0 mphRainLight Rain Showers
3:00 AM46.4 °F46.4 °F100 %29.80 in5.0 miWest (260°)16.1 mphRainLight Rain Showers
4:00 AM44.6 °F42.8 °F93 %29.82 in12.0 miWest (260°)12.7 mph19.6 mphRainLight Rain Showers
4:10 AM44.6 °F42.8 °F93 %29.82 in15.0 miWest (270°)11.5 mph20.7 mphPartly Cloudy
5:00 AM42.8 °F41.0 °F93 %29.84 in15.0 miWSW (250°)11.5 mphClear
6:00 AM41.0 °F41.0 °F100 %29.85 in10.0 miWSW (250°)10.4 mphPartly Cloudy
7:00 AM41.0 °F39.2 °F93 %29.87 in15.0 miWSW (250°)9.2 mphPartly Cloudy
8:00 AM42.0 °F41.0 °F93 %29.88 in15.0 miWSW (240°)8.1 mph
8:00 AM42.8 °F41.0 °F93 %29.88 in15.0 miWSW (240°)9.2 mphMostly Cloudy
9:00 AM44.6 °F42.8 °F93 %29.90 in15.0 miWSW (240°)10.4 mphPartly Cloudy
10:00 AM48.2 °F44.6 °F87 %29.91 in15.0 miWSW (240°)15.0 mph20.7 mphPartly Cloudy
11:00 AM51.8 °F44.6 °F76 %29.91 in15.0 miWSW (240°)15.0 mphPartly Cloudy
12:00 PM53.6 °F42.8 °F67 %29.91 in15.0 miWest (260°)15.0 mph20.7 mphMostly Cloudy
1:00 PM57.2 °F42.8 °F59 %29.91 in15.0 miWSW (250°)19.6 mph27.6 mphMostly Cloudy
2:00 PM57.0 °F40.0 °F43 %29.89 in15.0 miWSW (240°)15.0 mph
2:00 PM57.2 °F41.0 °F55 %29.88 in15.0 miWSW (240°)16.1 mphMostly Cloudy
3:00 PM59.0 °F39.2 °F48 %29.87 in15.0 miWest (260°)12.7 mph20.7 mphMostly Cloudy
4:00 PM59.0 °F42.8 °F55 %29.86 in15.0 miSSW (210°)9.2 mphMostly Cloudy
5:00 PM57.2 °F46.4 °F67 %29.86 in15.0 miSW (220°)6.9 mphMostly Cloudy
6:00 PM57.2 °F42.8 °F59 %29.87 in15.0 miWSW (250°)9.2 mphPartly Cloudy
7:00 PM53.6 °F41.0 °F62 %29.87 in15.0 miSW (220°)5.8 mphPartly Cloudy
8:00 PM51.0 °F41.0 °F60 %29.88 in15.0 miSSW (200°)5.8 mph
8:00 PM51.8 °F41.0 °F67 %29.88 in15.0 miSouth (190°)5.8 mphClear
9:00 PM50.0 °F42.8 °F76 %29.88 in15.0 miSSW (210°)6.9 mphPartly Cloudy
10:00 PM50.0 °F42.8 °F76 %29.88 in15.0 miSSW (200°)5.8 mphPartly Cloudy
11:00 PM50.0 °F42.8 °F76 %29.89 in15.0 miWest (260°)6.9 mphPartly Cloudy
Hourly data recorded from CYXU, located miles away from Stratford, Ontario







STORIES FROM OUR PARTNERS